EW9842 Weather Reports


time (UTC)temp
C
wind
direction
speed
KPH
gust
KPH
rain 1hr
cm
rain 24hr
cm
rain mn
cm
humidity
%
barometer
mb
20200531080035 8 343 4.8 0.0 0.00 0.38 0.00 77 1015.5
20200531074549 8 7 3.2 0.0 0.00 0.38 0.00 74 1015.5
20200531073040 8 16 3.2 0.0 0.00 0.38 0.00 75 1015.5
20200531071538 9 340 3.2 0.0 0.00 0.38 0.00 75 1015.1
20200531070032 9 270 3.2 0.0 0.00 0.38 0.00 76 1015.5
20200531064537 9 342 3.2 0.0 0.00 0.38 0.00 75 1015.5
20200531063048 9 284 4.8 0.0 0.00 0.38 0.00 75 1015.5
20200531061536 9 236 4.8 0.0 0.00 0.38 0.00 75 1015.5
20200531060041 9 241 4.8 0.0 0.00 0.38 0.00 76 1015.5
20200531054543 9 275 4.8 0.0 0.00 0.38 0.00 77 1015.5
20200531053050 9 291 3.2 0.0 0.00 0.38 0.00 77 1015.5
20200531051540 9 253 1.6 0.0 0.00 0.38 0.00 78 1015.5
20200531050033 9 58 0.0 0.0 0.00 0.38 0.00 77 1015.5
20200531044541 9 241 4.8 0.0 0.00 0.38 0.00 77 1015.5
20200531043039 9 248 4.8 0.0 0.00 0.38 0.00 76 1015.1
20200531041553 9 221 6.4 0.0 0.00 0.38 0.00 75 1015.5
20200531040044 9 244 9.7 0.0 0.00 0.38 0.00 73 1015.1
20200531034529 9 292 11.3 0.0 0.00 0.38 0.00 71 1015.1
20200531033037 10 297 12.9 0.0 0.00 0.38 0.00 71 1014.4
20200531031534 10 297 8.0 0.0 0.00 0.38 0.00 74 1014.0
20200531030052 10 302 8.0 0.0 0.00 0.38 0.00 77 1014.4
20200531024534 9 298 8.0 0.0 0.00 0.38 0.00 78 1014.4
20200531023037 9 306 6.4 0.0 0.00 0.38 0.00 79 1014.4
20200531021555 9 312 0.0 0.0 0.00 0.38 0.00 78 1014.0
20200531020035 9 331 0.0 0.0 0.00 0.38 0.00 76 1014.0
20200531014544 10 294 0.0 0.0 0.00 0.38 0.00 75 1014.0
20200531013033 10 281 0.0 0.0 0.00 0.38 0.00 77 1013.7
20200531011534 10 288 0.0 0.0 0.03 0.38 0.00 79 1013.3
20200531010040 10 345 0.0 0.0 0.03 0.38 0.00 80 1013.0
20200531004547 10 87 0.0 0.0 0.05 0.38 0.00 83 1013.0
20200531003048 10 31 0.0 0.0 0.10 0.38 0.00 82 1013.3
20200531001541 10 283 0.0 0.0 0.10 0.36 0.00 81 1013.0
20200531000040 10 333 0.0 0.0 0.18 0.36 0.00 80 1012.6
20200530234545 11 316 4.8 0.0 0.23 0.33 0.00 79 1011.9
20200530233045 11 257 0.0 0.0 0.28 0.28 0.00 77 1011.9
20200530231532 10 204 0.0 0.0 0.25 0.25 0.00 84 1011.2
20200530230037 10 19 0.0 0.0 0.18 0.18 0.00 80 1011.9
20200530224538 11 33 0.0 0.0 0.10 0.10 0.00 72 1012.3
20200530223034 12 35 0.0 0.0 0.00 0.00 0.00 81 1011.9
20200530221529 13 248 0.0 0.0 0.00 0.00 0.00 68 1011.2
20200530220040 14 228 0.0 0.0 0.00 0.00 0.00 66 1010.1
20200530214549 15 249 0.0 0.0 0.00 0.00 0.00 63 1009.4
20200530213047 16 312 0.0 0.0 0.00 0.00 0.00 60 1009.0
20200530211534 17 289 0.0 0.0 0.00 0.00 0.00 59 1009.0
20200530204552 19 280 0.0 0.0 0.00 0.00 0.00 55 1008.7
20200530203037 21 282 0.0 0.0 0.00 0.00 0.00 54 1008.3
20200530201537 21 298 0.0 0.0 0.00 0.00 0.00 54 1008.0
20200530200037 22 289 8.0 0.0 0.00 0.00 0.00 54 1007.6
20200530194545 22 285 9.7 0.0 0.00 0.00 0.00 54 1007.3
20200530193044 23 282 16.1 0.0 0.00 0.00 0.00 53 1007.3
20200530191545 24 277 12.9 0.0 0.00 0.00 0.00 52 1007.3
20200530190039 24 318 6.4 0.0 0.00 0.00 0.00 55 1007.3
20200530184541 23 336 6.4 0.0 0.00 0.00 0.00 55 1007.3
20200530183055 24 335 4.8 0.0 0.00 0.00 0.00 55 1007.3
20200530181530 23 9 1.6 0.0 0.00 0.00 0.00 57 1007.3
20200530180029 22 114 0.0 0.0 0.00 0.00 0.00 60 1007.6
20200530174538 21 135 0.0 0.0 0.00 0.00 0.00 62 1008.0
20200530173046 21 303 0.0 0.0 0.00 0.00 0.00 63 1008.3
20200530171611 20 312 3.2 0.0 0.00 0.00 0.00 65 1008.3
20200530170048 20 314 6.4 0.0 0.00 0.00 0.00 65 1008.3
20200530164539 20 318 6.4 0.0 0.00 0.00 0.00 63 1008.7
20200530163046 22 334 3.2 0.0 0.00 0.00 0.00 59 1009.0
20200530161540 22 133 1.6 0.0 0.00 0.00 0.00 59 1009.4
20200530160047 20 62 0.0 0.0 0.00 0.00 0.00 63 1009.4
20200530154538 19 356 0.0 0.0 0.00 0.00 0.00 65 1009.8
20200530153047 18 310 1.6 0.0 0.00 0.00 0.00 67 1009.8
20200530151535 17 321 0.0 0.0 0.00 0.00 0.00 70 1009.8
20200530150038 17 357 0.0 0.0 0.00 0.00 0.00 71 1009.8
20200530144532 17 43 1.6 0.0 0.00 0.00 0.00 74 1010.1
20200530143029 16 48 1.6 0.0 0.00 0.00 0.00 77 1010.1
20200530141536 16 354 4.8 0.0 0.00 0.00 0.00 81 1010.5
20200530140036 15 9 3.2 0.0 0.00 0.00 0.00 84 1010.5
20200530134544 15 166 1.6 0.0 0.00 0.00 0.00 85 1010.1
20200530133031 15 216 3.2 0.0 0.00 0.00 0.00 84 1009.4
20200530131531 15 194 1.6 0.0 0.00 0.00 0.00 82 1009.4
20200530130034 15 139 1.6 0.0 0.00 0.00 0.00 82 1009.8
20200530124531 15 77 1.6 0.0 0.00 0.00 0.00 82 1009.8
20200530123040 15 216 3.2 0.0 0.00 0.00 0.00 81 1009.8
20200530121530 15 159 3.2 0.0 0.00 0.00 0.00 80 1009.8
20200530120047 15 153 1.6 0.0 0.00 0.00 0.00 80 1010.1
20200530114530 15 147 3.2 0.0 0.00 0.00 0.00 79 1010.1
20200530113034 15 144 3.2 0.0 0.00 0.00 0.00 79 1010.1
20200530111540 15 124 4.8 0.0 0.00 0.00 0.00 78 1010.1
20200530110037 15 179 4.8 0.0 0.00 0.00 0.00 78 1009.8
20200530104541 15 136 4.8 0.0 0.00 0.00 0.00 77 1010.1
20200530103031 15 171 4.8 0.0 0.00 0.00 0.00 78 1010.1
20200530100034 15 169 4.8 0.0 0.00 0.00 0.00 77 1010.1
20200530094534 16 121 1.6 0.0 0.00 0.00 0.00 75 1010.5
20200530093037 16 172 4.8 0.0 0.00 0.00 0.00 75 1010.8
20200530091535 16 149 4.8 0.0 0.00 0.00 0.00 74 1010.8
20200530090029 16 195 4.8 0.0 0.00 0.00 0.00 73 1011.2
20200530084624 16 148 4.8 0.0 0.00 0.00 0.00 73 1011.2
20200530083038 16 146 3.2 0.0 0.00 0.00 0.00 73 1011.5
20200530081533 16 148 3.2 0.0 0.00 0.00 0.00 72 1011.5